USA 113

Last updated on Nov. 18, 2019, 4:21 a.m. UTC

1 23628U 95038A   19320.80208201 -.00000328  00000-0  00000-0 0  9996
2 23628  11.2408  31.6224 0002250 230.9003 185.4563  1.00265181  8861
UTC
Height (km)
Latitude
Longitude
Inclination
Orbital Period
UTC large
Height (km)
Speed (km/s)
/
Latitude / Longitude
Inclination (degrees)
Orbital Period (minutes)
Azimuth
Elevation
Range (km)
Doppler Factor
iOS Compass Heading
iOS Angle

Next 30 passes for location: Hong Kong

Rise time Rise Azimuth (degrees) Set time Set Azimuth (degrees) Duration Max altitude (degrees)

No matching passes for this satellites